Home   Weather   Sydney   Past weeks
Flag for Australia

Past Weather in Sydney, New South Wales, Australia — Yesterday and Last 2 Weeks

Now
60 °F

Refreshingly cool.


Feels Like: N/A
Forecast: 80 / 55 °F
Wind: N/A

Location: Sydney Regional Office

Current Time: Oct 19, 2019 at 12:49:18 am

Latest Report: Oct 19, 2019 at 12:00 am


Visibility: N/A

Pressure: 29.97 "Hg

Humidity: 57%

Dew Point: 44 °F

Location of SydneyLocation

Past Weather in Sydney — Graph

°F

Sydney Temperature Yesterday

Maximum temperature yesterday: 75 °F (at 1:00 pm)
Minimum temperature yesterday: 54 °F (at 6:00 am)
Average temperature yesterday: 64 °F

High & Low Weather Summary for the Past Weeks

 TemperatureHumidityPressure
High91 °F (Oct 4, 12:00 pm)88% (Oct 12, 4:00 am)30.24 "Hg (Oct 12, 4:00 am)
Low51 °F (Oct 9, 6:00 am)13% (Oct 17, 6:00 pm)29.67 "Hg (Oct 17, 1:00 pm)
Average64 °F63%30.01 "Hg
* Reported Oct 3 9:00 pm — Oct 18 10:00 pm, Sydney. Weather by CustomWeather, © 2019

Note: Actual official high and low records may vary slightly from our data, if they occured in-between our weather recording intervals... More about our weather records

Advertising

Sydney Weather History for the Previous 24 Hours

Scroll right to see more
 ConditionsComfort  
Time TempWeatherWind HumidityBarometerVisibility
10:00 pm
Fri, Oct 18
63 °FMild.N/A56%29.98 "HgN/A
9:00 pm64 °FMild.N/A53%29.97 "HgN/A
7:00 pm66 °FMild.N/A48%29.93 "HgN/A
6:00 pm69 °FMild.N/A40%29.92 "HgN/A
4:00 pm69 °FMild.N/A38%29.93 "HgN/A
3:00 pm71 °FMild.N/A34%29.95 "HgN/A
1:00 pm75 °FMild.N/A25%30.01 "HgN/A
12:00 pm71 °FMild.N/A26%30.03 "HgN/A
10:00 am67 °FMild.N/A29%30.06 "HgN/A
9:00 am64 °FMild.N/A32%30.05 "HgN/A
7:00 am56 °FRefreshingly cool.N/A41%30.02 "HgN/A
6:00 am54 °FCool.N/A46%29.99 "HgN/A
4:00 am58 °FRefreshingly cool.N/A37%29.96 "HgN/A
3:00 am60 °FRefreshingly cool.N/A31%29.95 "HgN/A
1:00 am60 °FRefreshingly cool.N/A29%29.96 "HgN/A
12:00 am62 °FRefreshingly cool.N/A28%29.95 "HgN/A
Weather by CustomWeather, © 2019

See weather overview